Simultaneous Nadir Overpasses (SNOs) Predictions

Prediction of SNOs near equator between NOAA-19 and NPP Satellite Orbit:

Table of predicted SNOs near equator for the next 14.0 days since TLE Epoch: 4/21/2012
Index Date (NOAA-19) Time (NOAA-19) NOAA-19 Lat,Lon Date (NPP) Time (NPP) NPP Lat,Lon Distance(km) Time Diff (sec)
1 04/22/2012 00:03:07 29.97,-162.87 04/21/2012 23:59:08 29.80,-163.85 96.77 239
2 04/22/2012 00:54:03 -29.96, 4.40 04/22/2012 00:49:49 -29.79, 3.48 90.86 254
3 04/22/2012 01:45:12 29.95, 171.61 04/22/2012 01:40:38 29.80, 170.77 82.94 274
4 04/22/2012 02:36:09 -29.99, -21.13 04/22/2012 02:31:20 -29.86, -21.92 76.96 289
5 04/22/2012 03:27:18 29.99, 146.08 04/22/2012 03:22:09 29.87, 145.38 69.04 309
6 04/22/2012 04:18:14 -29.97, -46.65 04/22/2012 04:12:50 -29.87, -47.29 63.13 324
7 04/22/2012 05:09:23 29.97, 120.56 04/22/2012 05:03:39 29.88, 120.00 55.22 344
8 04/22/2012 06:00:19 -29.95, -72.17 04/22/2012 05:54:20 -29.88, -72.67 49.32 359
9 04/22/2012 06:51:28 29.95, 95.05 04/22/2012 06:45:09 29.89, 94.62 41.42 379
10 04/22/2012 07:42:25 -29.99, -97.70 04/22/2012 07:35:51 -29.94, -98.06 35.47 394
11 04/22/2012 08:33:34 29.98, 69.51 04/22/2012 08:26:40 29.95, 69.23 27.61 414
12 04/22/2012 09:24:30 -29.97,-123.22 04/22/2012 09:17:21 -29.95,-123.44 21.71 429
13 04/22/2012 10:15:39 29.96, 44.00 04/22/2012 10:08:09 29.90, 43.87 13.97 450
14 04/22/2012 11:06:35 -29.95,-148.73 04/22/2012 10:58:51 -29.96,-148.82 8.19 464
15 04/22/2012 11:56:47 26.64, 19.38 04/22/2012 11:48:43 26.64, 19.37 1.13 484
16 04/22/2012 12:42:01 -6.64,-168.50 04/22/2012 12:33:43 -6.65,-168.51 1.53 498
17 04/22/2012 13:31:14 -0.04, 0.24 04/22/2012 13:22:39 -0.01, 0.28 5.40 515
18 04/22/2012 14:22:33 -1.18, 167.22 04/22/2012 14:13:40 -1.19, 167.34 13.21 533
19 04/22/2012 15:13:55 2.04, -25.75 04/22/2012 15:04:44 2.06, -25.56 21.70 551
20 04/22/2012 16:05:14 -3.26, 141.23 04/22/2012 15:55:46 -3.32, 141.49 29.80 568
21 04/22/2012 16:56:36 4.11, -51.75 04/22/2012 16:46:50 4.18, -51.41 38.25 586
22 04/22/2012 17:47:51 -5.12, 115.28 04/22/2012 17:37:51 -5.38, 115.65 50.30 600
23 05/04/2012 04:42:23 29.97, 127.33 05/04/2012 04:38:05 29.79, 126.39 92.93 258
24 05/04/2012 05:33:17 -29.96, -65.39 05/04/2012 05:28:46 -29.79, -66.28 87.81 271
25 05/04/2012 06:24:28 29.95, 101.81 05/04/2012 06:19:35 29.80, 101.01 79.09 293
26 05/04/2012 07:15:23 -30.00, -90.93 05/04/2012 07:10:17 -29.86, -91.67 73.90 306
27 05/04/2012 08:06:34 29.99, 76.28 05/04/2012 08:01:06 29.87, 75.62 65.18 328
28 05/04/2012 08:57:28 -29.98,-116.44 05/04/2012 08:51:47 -29.87,-117.05 60.06 341
29 05/04/2012 09:48:39 29.97, 50.76 05/04/2012 09:42:36 29.88, 50.24 51.35 363
30 05/04/2012 10:39:33 -29.96,-141.96 05/04/2012 10:33:17 -29.88,-142.43 46.23 376
31 05/04/2012 11:30:44 29.95, 25.25 05/04/2012 11:24:06 29.89, 24.86 37.52 398
32 05/04/2012 12:21:39 -30.00,-167.49 05/04/2012 12:14:48 -29.95,-167.82 32.36 411
33 05/04/2012 13:12:50 29.99, -0.29 05/04/2012 13:05:37 29.96, -0.53 23.70 433
34 05/04/2012 14:03:44 -29.98, 166.99 05/04/2012 13:56:18 -29.96, 166.80 18.58 446
35 05/04/2012 14:54:54 29.97, -25.80 05/04/2012 14:47:06 29.97, -25.91 10.10 468
36 05/04/2012 15:45:48 -29.96, 141.48 05/04/2012 15:37:47 -29.97, 141.42 5.14 481
37 05/04/2012 16:33:32 17.91, -48.20 05/04/2012 16:25:10 17.91, -48.20 0.13 502
38 05/04/2012 17:19:21 -0.06, 123.21 05/04/2012 17:10:47 -0.08, 123.20 2.21 514
39 05/04/2012 18:10:49 1.10, -69.82 05/04/2012 18:01:54 1.12, -69.73 9.91 535
40 05/04/2012 19:02:02 -2.15, 97.21 05/04/2012 18:52:53 -2.21, 97.35 17.09 549
41 05/04/2012 19:53:30 3.18, -95.82
